Hourly Data Report for October 11, 2015

All times are specified in Local Standard Time (LST). Add 1 hour to adjust for Daylight Saving Time where and when it is observed.

RESOLUTE BAY A
NUNAVUT

74°43'01.000" N
94°58'10.000" W
67.70 m
2403498
71924
YRB

Download Data

Hourly Data (October 2015)
Hourly Data Report for October 11, 2015
Temp Definition
°C
Dew Point Temp Definition
°C
Rel Hum Definition
%
Wind Dir Definition
10's deg

Wind Spd Definition
km/h
Visibility Definition
km
Stn Press Definition
kPa
Hmdx Definition


Wind Chill Definition


Weather Definition


TIME
00:00 Legend Double Dagger -8.9 -11.8 80 11 16 24.1 100.27   -16 Mainly Clear
01:00 Legend Double Dagger -10.6 -13.0 83 8 17 24.1 100.26   -18 LegendNANA
02:00 Legend Double Dagger -11.0 -12.8 87 5 18 24.1 100.26   -19 LegendNANA
03:00 Legend Double Dagger -8.5 -10.6 85 4 14 24.1 100.26   -15 Snow
04:00 Legend Double Dagger -12.1 -13.4 90 4 15 24.1 100.27   -19 LegendNANA
05:00 Legend Double Dagger -11.9 -13.4 89 5 22 24.1 100.26   -21 LegendNANA
06:00 Legend Double Dagger -12.2 -13.8 88 4 25 24.1 100.25   -22 Mainly Clear
07:00 Legend Double Dagger -12.7 -14.0 90 4 29 24.1 100.24   -23 LegendNANA
08:00 Legend Double Dagger -10.7 -12.2 89 4 31 24.1 100.22   -21 LegendNANA
09:00 Legend Double Dagger -9.6 -11.4 87 5 31 24.1 100.20   -19 Mostly Cloudy
10:00 Legend Double Dagger -9.1 -11.5 83 6 28 24.1 100.17   -18 LegendNANA
11:00 Legend Double Dagger -9.0 -11.1 85 3 25 24.1 100.16   -17 LegendNANA
12:00 Legend Double Dagger -7.1 -9.1 86 5 31 24.1 100.16   -16 Cloudy
13:00 Legend Double Dagger -7.1 -8.9 87 4 27 24.1 100.13   -15 LegendNANA
14:00 Legend Double Dagger -7.2 -9.3 85 2 25 24.1 100.11   -15 LegendNANA
15:00 Legend Double Dagger -6.9 -8.7 87 4 35 6.4 100.07   -16 Snow
16:00 Legend Double Dagger -6.6 -8.1 89 5 38 0.8 100.04   -16 Snow
17:00 Legend Double Dagger -6.4 -7.9 89 5 43 0.8 100.02   -16 Snow
18:00 Legend Double Dagger -6.4 -7.8 90 4 36 0.8 100.01   -16 Snow
19:00 Legend Double Dagger -6.4 -7.8 90 4 40 3.2 99.98   -16 Snow
20:00 Legend Double Dagger -6.6 -8.1 89 5 40 6.4 99.95   -16 Snow,Blowing Snow
21:00 Legend Double Dagger -6.5 -8.2 88 5 35 9.7 99.92   -16 Blowing Snow
22:00 Legend Double Dagger -6.7 -8.2 89 4 32 9.7 99.90   -15 Blowing Snow
23:00 Legend Double Dagger -5.9 -7.6 88 5 36 9.7 99.87   -15 Blowing Snow

Notes on Data Quality.

Legend

  • E = Estimated
  • M = Missing
  • NA = Not Available
  • ‡ = Partner data that is not subject to review by the National Climate Archives
Date modified: